AirNav   TITAN Aviation Fuels
 
 1590 users online  

71CL Gunnersfield Ranch Airport
Delevan, California, USA

GOING TO DELEVAN?


FAA INFORMATION EFFECTIVE 08 SEPTEMBER 2022

Location

FAA Identifier: 71CL
Lat/Long: 39-21-09.5910N 122-05-37.9160W
39-21.159850N 122-05.631933W
39.3526642,-122.0938656
(estimated)
Elevation: 62 ft. / 19 m (estimated)
Variation: 17E (1985)
From city: 4 miles E of DELEVAN, CA
Time zone: UTC -7 (UTC -8 during Standard Time)
Zip code: 95932

Airport Operations

Airport use: Private use. Permission required prior to landing
Activation date: 05/1965
Control tower: no
ARTCC: OAKLAND CENTER
FSS: RANCHO MURIETA FLIGHT SERVICE STATION
Attendance: UNATNDD
Wind indicator: yes
Segmented circle: no
Lights: FOR RWY LGTS PHONE 916-438-2316.
Beacon: white-green (lighted land airport)
FOR RTG BCN PHONE 916-438-2316.

Nearby radio navigation aids

VOR radial/distance  VOR name  Freq  Var
ILAr332/17.2WILLIAMS VORTAC114.4018E
MYVr286/28.6MARYSVILLE VOR/DME110.8016E

Airport Services

Airframe service: NONE
Powerplant service: NONE

Runway Information

Runway 16/34

Dimensions: 2570 x 40 ft. / 783 x 12 m
Surface: asphalt
Runway edge lights: low intensity
RUNWAY 16  RUNWAY 34
Traffic pattern: leftleft
Obstructions: none4 ft. levee, 20 ft. from runway

Airport Ownership and Management from official FAA records

Ownership: Privately-owned
Owner: JON B. CHANEY
PO BOX 626
MAXWELL, CA 95955
Phone 916-438-2504
Manager: DOUGLAS MC GEOGHEGAN
PO BOX 626
MAXWELL, CA 95955
Phone 916-438-2504

Airport Operational Statistics

Aircraft based on the field: 1
Single engine airplanes: 1
    

Additional Remarks

LGTD/MKD HANGER NEAR RWY.
FOR CD CTC OAKLAND ARTCC AT 510-745-3380.

Instrument Procedures

There are no published instrument procedures at 71CL.

Some nearby airports with instrument procedures:

KWLW - Willows/Glenn County Airport (11 nm NW)
O08 - Colusa County Airport (11 nm SE)
O37 - Haigh Field Airport (22 nm N)
KOVE - Oroville Municipal Airport (23 nm E)
KCIC - Chico Municipal Airport (29 nm N)
 
Loc | Ops | Rwys | IFR | FBO | Links
Com | Nav | Svcs | Stats | Notes

Sonoma Jet Center
 
Area around 71CL (Gunnersfield Ranch Airport)
 
Road maps at: MapQuest Bing Google
 
Aerial photo
No photo
 
Sectional chart

 
Airport distance calculator
Flying to Gunnersfield Ranch Airport? Find the distance to fly.

From to 71CL

Sunrise and sunset
Times for 05-Oct-2022
 Local
(UTC-7)
 Zulu
(UTC)
Morning civil twilight06:4313:43
Sunrise07:0914:09
Sunset18:4401:44
Evening civil twilight19:1102:11

Current date and time
Zulu (UTC)  05-Oct-2022 20:49:38
Local (UTC-7)  05-Oct-2022 13:49:38
 
METAR
KOVE 
24nm E 
051953Z AUTO 28005KT 10SM CLR 29/14 A3000 RMK AO2 SLP161 T02890144
KCIC 
29nm NE 
051953Z VRB04KT 10SM CLR 28/13 A3000
KMYV 
29nm SE 
051953Z AUTO 30004KT 10SM CLR 29/12 A2999 RMK AO2 SLP158 T02940122
KBAB 
33nm SE 
051955Z AUTO 29004KT 10SM CLR 30/13 A2997 RMK AO2 SLP151 T02960129 $
KLHM 
44nm SE 
052035Z AUTO 24005KT 10SM CLR 30/12 A2996 RMK AO1
KSMF 
45nm SE 
051953Z 00000KT 10SM CLR 29/14 A2998 RMK AO2 SLP151 T02940139
TAF
KBAB 
33nm SE 
051900Z 0519/0701 27006KT 9999 SKC QNH2991INS WND VRB06KT AFT 0602 BECMG 0617/0618 27006KT 9999 SKC QNH2996INS TX32/0523Z TN14/0614Z
NOTAMs
Click for the latest NOTAMs
NOTAMs are issued by the DoD/FAA and will open in a separate window not controlled by AirNav.

 

 
 

Would you like to see your business listed on this page?

 If your business provides an interesting product or service to pilots, flight crews, aircraft, or users of the Gunnersfield Ranch Airport, you should consider listing it here.  To start the listing process, click on the button below
 
Add a business
 

Other Pages about Gunnersfield Ranch Airport

Update a link
 
Copyright © AirNav, LLC. All rights reserved. Privacy Policy  Contact